Location: Morlupo
(42.1333°N, 12.5000°E)
Time: 15:46:29
(UTC+00:00)

Cosmos 1603 - Pass Details

Date: 18 September 2020
Orbit: 832 x 858 km, 71.0° (Epoch: 25 October)

Event Time Altitude Azimuth Distance (km) Brightness Sun altitude
Rises 18:23:27 0° 332° (NNW) 3,415 7.5 -13.6°
Reaches altitude 10° 18:25:56 10° 329° (NNW) 2,472 6.8 -14.0°
Maximum altitude 18:31:31 61° 251° (WSW) 946 4.2 -15.0°
Drops below altitude 10° 18:37:01 10° 171° (S) 2,440 5.8 -16.0°
Enters shadow 18:39:21 - 168° (SSE) 3,323 6.5 -16.4°
